GW6386 Weather Reports


Display with metric or nautical units.
time (UTC)temp
F
wind
direction
speed
MPH
gust
MPH
rain 1hr
in
rain 24hr
in
rain mn
in
humidity
%
barometer
mb
20260505111147 49 38 8.0 18.0 0.03 0.00 0.13 93 309.9
20260505110646 49 36 6.0 14.0 0.03 0.00 0.13 93 313.9
20260505110145 49 35 4.0 20.0 0.03 0.00 0.13 93 311.8
20260505102121 50 22 6.0 13.0 0.02 0.00 0.10 92 389.2
20260505101620 50 24 4.0 12.0 0.02 0.00 0.10 92 373.5
20260505101119 50 39 5.0 16.0 0.02 0.00 0.10 92 329.0
20260505095042 51 28 5.0 13.0 0.02 0.00 0.10 92 451.0
20260505094541 51 12 4.0 13.0 0.02 0.00 0.10 91 408.1
20260505093524 51 37 7.0 16.0 0.00 0.00 0.09 91 384.8
20260505092508 52 34 4.0 14.0 0.00 0.00 0.08 91 523.2
20260505092007 52 5 5.0 12.0 0.00 0.00 0.08 91 514.2
20260505091507 52 23 5.0 12.0 0.00 0.00 0.08 91 484.9
20260505091007 52 18 5.0 12.0 0.00 0.00 0.08 91 533.1
20260505090506 52 9 4.0 13.0 0.00 0.00 0.08 92 578.1
20260505090006 52 27 7.0 16.0 0.00 0.00 0.08 92 370.1
20260505084950 53 46 6.0 16.0 0.00 0.00 0.08 92 347.4
20260505084449 53 46 7.0 25.0 0.00 0.00 0.08 92 365.1
20260505083948 53 48 5.0 25.0 0.00 0.00 0.08 92 384.5
20260505083447 54 58 6.0 18.0 0.00 0.00 0.08 92 351.4
20260505082946 54 54 7.0 18.0 0.02 0.00 0.08 91 380.4
20260505082445 54 41 7.0 15.0 0.04 0.00 0.08 91 420.1
20260505081944 55 29 5.0 14.0 0.08 0.00 0.08 91 430.0
20260505081443 55 25 5.0 14.0 0.08 0.00 0.08 91 476.5
20260505080942 56 18 6.0 16.0 0.08 0.00 0.08 90 551.7
20260505080441 56 16 6.0 16.0 0.08 0.00 0.08 90 547.8
20260505075941 57 23 6.0 12.0 0.08 0.00 0.08 91 527.6
20260505075440 57 20 5.0 12.0 0.08 0.00 0.08 90 503.1
20260505074939 57 8 2.0 13.0 0.08 0.00 0.08 89 615.8
20260505074438 57 15 2.0 13.0 0.08 0.00 0.08 87 502.2
20260505073937 58 17 3.0 15.0 0.08 0.00 0.08 85 554.2
20260505073436 59 20 4.0 19.0 0.07 0.00 0.07 82 520.1
20260505072935 61 19 8.0 19.0 0.07 0.00 0.07 78 585.9
20260505072434 63 357 6.0 19.0 0.04 0.00 0.04 74 718.5
20260505071931 65 0 9.0 19.0 0.00 0.00 0.00 68 772.5
20260505071431 67 350 4.0 12.0 0.00 0.00 0.00 65 881.6
20260505070930 68 318 4.0 15.0 0.00 0.00 0.00 73 898.4
20260505065913 68 226 2.0 15.0 0.00 0.00 0.00 72 838.2
20260505065413 68 229 2.0 15.0 0.00 0.00 0.00 72 838.0
20260505064911 68 230 2.0 15.0 0.00 0.00 0.00 72 831.6
20260505064410 68 239 3.0 15.0 0.00 0.00 0.00 72 840.9
20260505063909 68 229 3.0 15.0 0.00 0.00 0.00 72 812.9
20260505063409 68 204 3.0 15.0 0.00 0.00 0.00 72 789.2
20260505062909 68 209 3.0 15.0 0.00 0.00 0.00 72 790.9
20260505062408 68 220 3.0 15.0 0.00 0.00 0.00 72 788.8
20260505061907 68 208 3.0 15.0 0.00 0.00 0.00 72 792.7
20260505060336 68 223 3.0 15.0 0.00 0.00 0.00 72 804.5
20260505055835 68 221 3.0 15.0 0.00 0.00 0.00 72 783.9
20260505055334 68 207 3.0 15.0 0.00 0.00 0.00 72 766.5
20260505054833 68 187 2.0 15.0 0.00 0.00 0.00 72 766.2
20260505054332 68 192 2.0 15.0 0.00 0.00 0.00 72 789.2
20260505053831 68 223 3.0 15.0 0.00 0.00 0.00 72 798.6
20260505053331 69 224 3.0 15.0 0.00 0.00 0.00 71 771.9
20260505052830 69 178 3.0 15.0 0.00 0.00 0.00 71 741.3
20260505052329 69 204 3.0 15.0 0.00 0.00 0.00 71 758.1
20260505051828 69 208 3.0 15.0 0.00 0.00 0.00 71 754.2
20260505051327 69 206 3.0 15.0 0.00 0.00 0.00 71 739.5
20260505050310 69 146 2.0 15.0 0.00 0.00 0.00 71 709.7
20260505041304 70 147 1.0 15.0 0.00 0.00 0.00 68 698.8
20260505040804 70 206 3.0 15.0 0.00 0.00 0.00 68 753.6
20260505040304 70 186 2.0 15.0 0.00 0.00 0.00 68 757.3
20260505034731 71 207 3.0 15.0 0.00 0.00 0.00 67 748.4
20260505034231 71 181 2.0 15.0 0.00 0.00 0.00 67 727.8
20260505032658 71 232 2.0 15.0 0.00 0.00 0.00 66 799.9
20260505032157 72 208 2.0 15.0 0.00 0.00 0.00 66 776.2
20260505031656 72 205 3.0 15.0 0.00 0.00 0.00 65 784.7
20260505030639 72 203 3.0 15.0 0.00 0.00 0.00 65 788.7
20260505030138 72 226 2.0 15.0 0.00 0.00 0.00 65 791.0
20260505025637 72 197 2.0 15.0 0.00 0.00 0.00 65 741.0
20260505025136 72 158 2.0 15.0 0.00 0.00 0.00 65 721.8
20260505024635 72 216 3.0 15.0 0.00 0.00 0.00 65 771.0
20260505024134 72 204 2.0 15.0 0.00 0.00 0.00 65 753.6
20260505023633 72 191 2.0 15.0 0.00 0.00 0.00 65 747.7
20260505023132 72 231 2.0 15.0 0.00 0.00 0.00 65 768.1
20260505022631 72 206 3.0 15.0 0.00 0.00 0.00 66 743.9
20260505022131 72 188 2.0 15.0 0.00 0.00 0.00 66 753.1
20260505021629 72 228 2.0 15.0 0.00 0.00 0.00 66 794.5
20260505021128 73 202 4.0 15.0 0.00 0.00 0.00 66 774.9
20260505020628 73 210 4.0 15.0 0.00 0.00 0.00 66 778.8
20260505015610 73 206 5.0 15.0 0.00 0.00 0.00 66 757.4
20260505015109 73 178 4.0 15.0 0.00 0.00 0.00 66 754.4
20260505014608 74 213 5.0 15.0 0.00 0.00 0.00 66 785.9
20260505014108 74 218 5.0 15.0 0.00 0.00 0.00 65 785.8
20260505013607 74 202 5.0 15.0 0.00 0.00 0.00 65 767.8
20260505012035 74 201 7.0 14.0 0.00 0.00 0.00 65 765.2
20260505011534 74 193 6.0 14.0 0.00 0.00 0.00 65 760.8
20260505011032 75 210 7.0 13.0 0.00 0.00 0.00 64 771.5
20260505010531 75 197 6.0 13.0 0.00 0.00 0.00 64 760.8
20260505010030 75 193 5.0 13.0 0.00 0.00 0.00 63 776.8
20260505005530 75 210 4.0 13.0 0.00 0.00 0.00 63 796.0
20260505005028 75 220 6.0 13.0 0.00 0.00 0.00 63 782.6
20260505004527 76 209 8.0 13.0 0.00 0.00 0.00 62 768.3
20260505004027 76 206 7.0 13.0 0.00 0.00 0.00 62 776.0
20260505003527 76 215 5.0 13.0 0.00 0.00 0.00 61 788.2
20260505003026 76 209 5.0 13.0 0.00 0.00 0.00 61 787.1
20260505002525 77 202 6.0 13.0 0.00 0.00 0.00 61 781.7
20260505001508 77 214 5.0 13.0 0.00 0.00 0.00 60 797.1
20260505001007 78 216 5.0 13.0 0.00 0.00 0.00 60 790.0
20260505000507 78 210 6.0 13.0 0.00 0.00 0.00 59 789.1
20260504235451 78 223 5.0 13.0 0.00 0.00 0.00 58 802.1
20260504233917 79 212 6.0 13.0 0.00 0.00 0.00 56 783.6
20260504232900 80 210 6.0 13.0 0.00 0.00 0.00 54 800.3
20260504232400 80 225 6.0 13.0 0.00 0.00 0.00 52 814.8
20260504231859 80 210 5.0 13.0 0.00 0.00 0.00 52 802.2
20260504231358 80 212 6.0 13.0 0.00 0.00 0.00 51 808.4
20260504230857 81 214 4.0 13.0 0.00 0.00 0.00 51 804.3
20260504230357 81 223 5.0 13.0 0.00 0.00 0.00 50 810.9
20260504225855 81 218 7.0 13.0 0.00 0.00 0.00 49 813.2
20260504225355 80 218 5.0 14.0 0.00 0.00 0.00 50 818.7
20260504224339 81 222 4.0 14.0 0.00 0.00 0.00 50 810.9
20260504223322 81 215 5.0 14.0 0.00 0.00 0.00 51 808.5
20260504222822 81 225 5.0 14.0 0.00 0.00 0.00 49 815.4
20260504222321 81 218 5.0 14.0 0.00 0.00 0.00 50 803.8
20260504221821 82 231 3.0 14.0 0.00 0.00 0.00 49 815.7
20260504220805 82 210 5.0 14.0 0.00 0.00 0.00 49 800.4
20260504220304 82 214 6.0 14.0 0.00 0.00 0.00 48 818.3
20260504214731 82 259 4.0 14.0 0.00 0.00 0.00 48 867.6
20260504214230 82 226 5.0 14.0 0.00 0.00 0.00 49 850.6
20260504213729 82 233 5.0 14.0 0.00 0.00 0.00 49 865.6
20260504213228 82 257 3.0 14.0 0.00 0.00 0.00 50 888.0
20260504212727 82 263 3.0 14.0 0.00 0.00 0.00 51 871.9
20260504212226 82 226 5.0 14.0 0.00 0.00 0.00 48 812.3
20260504211725 82 219 7.0 14.0 0.00 0.00 0.00 48 797.1
20260504211224 82 221 9.0 14.0 0.00 0.00 0.00 47 796.9
20260504210723 82 206 3.0 13.0 0.00 0.00 0.00 50 787.9
20260504205706 82 225 6.0 13.0 0.00 0.00 0.00 50 796.7
20260504204649 82 215 8.0 14.0 0.00 0.00 0.00 47 784.4
20260504204148 82 217 7.0 13.0 0.00 0.00 0.00 48 796.6
20260504203647 81 211 5.0 14.0 0.00 0.00 0.00 50 790.2
20260504203146 81 223 5.0 14.0 0.00 0.00 0.00 49 813.0
20260504202645 81 215 6.0 14.0 0.00 0.00 0.00 50 812.7
20260504201628 81 220 6.0 14.0 0.00 0.00 0.00 48 805.2
20260504201127 81 223 6.0 14.0 0.00 0.00 0.00 48 801.2
20260504200626 81 211 8.0 13.0 0.00 0.00 0.00 49 793.8
20260504200125 81 225 6.0 13.0 0.00 0.00 0.00 48 805.6
20260504195624 81 200 5.0 13.0 0.00 0.00 0.00 50 790.7
20260504195123 80 209 6.0 13.0 0.00 0.00 0.00 49 789.1
20260504194106 81 212 5.0 12.0 0.00 0.00 0.00 48 786.8
20260504193059 82 208 5.0 13.0 0.00 0.00 0.00 48 802.2
20260504192558 81 226 5.0 13.0 0.00 0.00 0.00 48 821.6
20260504192057 81 211 7.0 13.0 0.00 0.00 0.00 47 816.2
20260504191556 81 219 7.0 13.0 0.00 0.00 0.00 47 824.0
20260504191055 81 214 7.0 13.0 0.00 0.00 0.00 47 826.5
20260504190554 81 227 3.0 12.0 0.00 0.00 0.00 50 855.0
20260504190053 81 212 5.0 13.0 0.00 0.00 0.00 50 822.1
20260504185552 80 229 5.0 13.0 0.00 0.00 0.00 50 816.7
20260504185052 80 226 5.0 13.0 0.00 0.00 0.00 48 814.7
20260504184551 80 225 5.0 13.0 0.00 0.00 0.00 48 801.4
20260504184050 80 215 8.0 13.0 0.00 0.00 0.00 49 804.0
20260504182011 80 217 6.0 13.0 0.00 0.00 0.00 50 809.8
20260504181510 80 225 4.0 13.0 0.00 0.00 0.00 49 814.7
20260504180453 79 212 7.0 13.0 0.00 0.00 0.00 49 806.8
20260504175437 79 206 7.0 13.0 0.00 0.00 0.00 48 836.1
20260504174936 79 253 4.0 13.0 0.00 0.00 0.00 50 880.1
20260504174435 79 222 5.0 13.0 0.00 0.00 0.00 49 842.2
20260504173418 78 236 6.0 13.0 0.00 0.00 0.00 50 834.1
20260504172917 78 222 6.0 13.0 0.00 0.00 0.00 50 838.5
20260504171900 77 219 6.0 19.0 0.00 0.00 0.00 51 830.2
20260504170327 76 230 5.0 13.0 0.00 0.00 0.00 53 866.1
20260504160300 72 209 4.0 12.0 0.00 0.00 0.00 57 796.7
20260504150737 71 236 9.0 18.0 0.00 0.00 0.00 54 825.7
20260504140628 68 218 7.0 14.0 0.00 0.00 0.00 56 809.3
20260504140127 68 222 6.0 15.0 0.00 0.00 0.00 57 808.0
20260504130601 65 223 9.0 16.0 0.00 0.00 0.00 58 810.0